Regional Weather Roundup
Issued by NWS

Home | Current Version | Previous Version | Graphics & Text | Print | Product List | Glossary On
Versions: 1 2 3 4 5 6 7 8 9 10 11 12 13 14 15 16 17 18 19 20 21 22 23 24 25 26 27 28 29 30 31 32 33 34 35 36 37 38 39 40 41 42 43 44 45 46 47 48 49 50
716
ASUS43 KIND 201109
RWRIN

WEATHER ROUNDUP FOR INDIANA
NATIONAL WEATHER SERVICE INDIANAPOLIS IN
700 AM EDT FRI OCT 20 2017

NOTE: "FAIR" INDICATES FEW OR NO CLOUDS BELOW 12,000 FEET WITH NO
SIGNIFICANT WEATHER AND/OR OBSTRUCTIONS TO VISIBILITY.

* - STATION DOES NOT REPORT WEATHER SUCH AS PRECIPITATION OR FOG.

+ - STATION NOT QUALITY CONTROLLED BY THE NATIONAL WEATHER SERVICE.
    USE DATA WITH CAUTION...ESPECIALLY DEWPOINT AND RELATIVE
    HUMIDITY OBSERVATIONS.

INZ001>003-010>013-019-020-201200-
NORTHWEST INDIANA

CITY           SKY/WX    TMP DP  RH WIND       PRES   REMARKS
GARY /AIRPORT/ CLEAR     55  48  76 S6        30.19R
KNOX *+        FAIR      46  45  93 S5        30.21S
LA PORTE +     FAIR      43  40  89 CALM      30.21S
MICHIGAN CITY+ FAIR      54  46  76 S5        30.21R
MONTICELLO +   FAIR      52  51  95 S5        30.22R
RENSSELAER +   FAIR      50  45  81 CALM      30.21S
VALPARAISO     FAIR      46  40  79 CALM      30.21R

$$

LMZ046-743>745-201200-
SOUTHERN LAKE MICHIGAN

STATION/POSITION TIME  TEMP    WIND        PRES    WAVE
                       AIR SEA DIR/SP/G            HT
                 (UTC) (F)     (DEG/KT/KT) (MB)    (FT)
BURNS HARBOR     1040   57     180/ 10/ 15 1022.4R
MICHIGAN CITY    1040   58     160/ 10/ 13   N/A
5NW MICH CITY    1100   57 58  190/ 10/ 12   N/A     1

$$

INZ004-005-014>016-021>024-201200-
NORTH CENTRAL INDIANA

CITY           SKY/WX    TMP DP  RH WIND       PRES   REMARKS
ELKHART        FAIR      45  39  81 CALM      30.22
GOSHEN         FAIR      45  38  76 SE6       30.23R
LOGANSPORT +   FAIR      46  45  93 SE3       30.24R
PERU/GRISSOM   CLEAR     51  49  96 S3        30.23R
SOUTH BEND     FAIR      44  39  82 CALM      30.22R
WARSAW +       FAIR      43  39  87 CALM      30.24R

$$

INZ006>009-017-018-025>027-201200-
NORTHEAST INDIANA

CITY           SKY/WX    TMP DP  RH WIND       PRES   REMARKS
AUBURN +       FAIR      43  39  87 CALM      30.25S
FORT WAYNE     FAIR      45  42  89 CALM      30.25R
HUNTINGTON +   FAIR      46  44  96 CALM      30.24R
KENDALLVILLE + FAIR      46  37  68 CALM      30.24S

$$

INZ028-029-035-036-043>045-051>053-201200-
WEST CENTRAL INDIANA

CITY           SKY/WX    TMP DP  RH WIND       PRES   REMARKS
CRAWFORDSVL +  FAIR      46  46 100 CALM      30.25R
GREENCASTLE +  FAIR      46  46 100 CALM      30.26R
LAFAYETTE      FAIR      49  49 100 CALM      30.23R
TERRE HAUTE    FAIR      48  46  93 CALM      30.25R FOG

$$

INZ030>032-037>040-046>048-054>057-064-065-201200-
CENTRAL INDIANA

CITY           SKY/WX    TMP DP  RH WIND       PRES   REMARKS
CP ATTERBURY + FOG       43  43 100 CALM      30.27R VSB 1/4
COLUMBUS       CLEAR     45  45 100 CALM      30.27
FRANKFORT +    FAIR      49  47  94 CALM      30.26R
GREENWOOD *+   FAIR      49  47  93 CALM      30.26R
INDIANAPOLIS   FAIR      52  49  89 CALM      30.26R
-EAGLE CREEK   FAIR      48  46  93 CALM      30.25R FOG
KOKOMO +       FAIR      48  47  96 S6        30.25R
MARION +       FAIR      46  45  93 S3        30.26R FOG
MT COMFORT *+  FAIR      46  46 100 S3        30.27R
SHELBYVILLE    FAIR      47  43  86 SE3       30.26R
ZIONSVILLE +   FAIR      45  44  97 CALM      30.26R

$$

INZ033-034-041-042-049-050-058-059-201200-
EAST CENTRAL INDIANA

CITY           SKY/WX    TMP DP  RH WIND       PRES   REMARKS
MUNCIE         FAIR      51  47  86 S5        30.26R
RICHMOND +     FAIR      46  46 100 CALM      30.28R

$$

INZ060-061-067>069-081>083-085>088-201200-
SOUTHWEST INDIANA

CITY           SKY/WX    TMP DP  RH WIND       PRES   REMARKS
EVANSVILLE     FAIR      47  46  97 CALM      30.26R
HUNTINGBURG +  FAIR      48  48 100 SE5       30.27R FOG
WASHINGTON +   FAIR      47  45  94 CALM      30.25S FOG

$$

INZ062-063-066-070>080-084-089>092-201200-
SOUTH CENTRAL AND SOUTHEAST INDIANA

CITY           SKY/WX    TMP DP  RH WIND       PRES   REMARKS
BEDFORD +      FAIR      48  46  93 CALM      30.26R
BLOOMINGTON    FAIR      45  43  93 CALM      30.26R
MADISON *+     FAIR      46  46 100 CALM      30.29S
NORTH VERNON + FAIR      45  43  93 CALM      30.28R
SEYMOUR +      FOG       43  43 100 CALM      30.27R VSB 1/4

$$





USA.gov is the U.S. government's official web portal to all federal, state and local government web resources and services.